User: anonymous
Location: French Creek State Gamelands
(40.1750°N, 75.7969°W)
Time: 02:33:22
(UTC-04:00)
Language:

ISS - Orbit

View from above orbital plane
View from above orbital plane
View from above satellite
View from above satellite

Ground track
Ground track

The orbit data is extracted from the following two-line orbital elements,

1 25544U 98067A   14213.86372340  .00004111  00000-0  78617-4 0  8151
2 25544 051.6466 233.1764 0006373 319.8593 098.3247 15.50501701898411
Epoch (UTC): 01 August 2014 20:43:45
Eccentricity: 0.0006373
inclination: 51.6466°
perigee height: 411 km
apogee height: 419 km
right ascension of ascending node: 233.1764°
argument of perigee: 319.8593°
revolutions per day: 15.50501701
mean anomaly at epoch: 98.3247°
orbit number at epoch: 89841

The dashed part of the orbit path shows where the satellite is in the earth's shadow,  

DLR